Change the Weather History Date:

Sunday, February 17, 2013

  Actual Average Record
Temperature  
Mean Temperature 34 °F -  
Max Temperature 50 °F 34 °F 64 °F (1981)
Min Temperature 19 °F 15 °F -31 °F (1958)
Degree Days  
Heating Degree Days 30    
Moisture  
Dew Point 25 °F    
Average Humidity 70    
Maximum Humidity 93    
Minimum Humidity 40    
Precipitation  
Precipitation 0.00 in - - ()
Sea Level Pressure  
Sea Level Pressure 29.83 in    
Wind  
Wind Speed 10 mph (SSE)    
Max Wind Speed 23 mph    
Max Gust Speed 29 mph    
Visibility 10 miles    
Events      
Averages and records for this station are not official NWS values.
T = Trace of Precipitation, MM = Missing Value Source: NWS Daily Summary

Daily Weather History Graph

Daily Weather History Graph

Search for Another Location

Airport or City:

Trip Planner

Search our weather history database for the weather conditions in past years. The results will help you decide how hot, cold, wet, or windy it might be!

Date:

Astronomy

Feb. 17, 2013 Rise Set
Actual Time 7:11 AM CST 5:54 PM CST
Civil Twilight 6:43 AM CST 6:23 PM CST
Nautical Twilight 6:10 AM CST 6:56 PM CST
Astronomical Twilight 5:38 AM CST 7:28 PM CST
Moon 10:57 AM CST (2/17) 12:59 AM CST (2/17)
Length of Visible Light 11h 40m
Length of Day
10h 42m
Waxing Crescent, 49% of the Moon is Illuminated
Feb 17
Waxing Crescent
Feb 17
First Quarter
Feb 25
Full
Mar 4
Last Quarter
Mar 11
New

Hourly Weather History & Observations

Time (CST) Temp. Windchill Dew Point Humidity Pressure Visibility Wind Dir Wind Speed Gust Speed Precip Events Conditions
12:15 AM 26.6 °F 20.0 °F 21.2 °F 80% 30.03 in 10.0 mi SSE 5.8 mph - N/A   Overcast
12:35 AM 26.6 °F 21.2 °F 21.2 °F 80% 30.03 in 10.0 mi SE 4.6 mph - N/A   Overcast
12:55 AM 24.8 °F 17.9 °F 21.2 °F 86% 30.03 in 10.0 mi SSE 5.8 mph - N/A   Overcast
1:15 AM 24.8 °F 19.1 °F 21.2 °F 86% 30.03 in 10.0 mi SSE 4.6 mph - N/A   Overcast
1:35 AM 26.6 °F 21.2 °F 21.2 °F 80% 30.02 in 10.0 mi SE 4.6 mph - N/A   Overcast
1:55 AM 24.8 °F 19.1 °F 21.2 °F 86% 30.03 in 10.0 mi ESE 4.6 mph - N/A   Overcast
2:15 AM 23.0 °F 17.0 °F 21.2 °F 93% 30.03 in 10.0 mi ESE 4.6 mph - N/A   Scattered Clouds
2:35 AM 23.0 °F 15.8 °F 21.2 °F 93% 30.03 in 10.0 mi SSE 5.8 mph - N/A   Clear
2:55 AM 23.0 °F 15.8 °F 21.2 °F 93% 30.02 in 10.0 mi SE 5.8 mph - N/A   Clear
3:15 AM 23.0 °F 18.4 °F 19.4 °F 86% 30.01 in 10.0 mi SSE 3.5 mph - N/A   Clear
3:35 AM 23.0 °F - 19.4 °F 86% 30.01 in 10.0 mi Calm Calm - N/A   Clear
3:55 AM 21.2 °F 16.4 °F 19.4 °F 93% 30.01 in 10.0 mi SE 3.5 mph - N/A   Clear
4:15 AM 21.2 °F 14.9 °F 19.4 °F 93% 30.00 in 10.0 mi SSE 4.6 mph - N/A   Clear
4:35 AM 21.2 °F 13.6 °F 19.4 °F 93% 30.00 in 10.0 mi SSE 5.8 mph - N/A   Clear
4:55 AM 21.2 °F 13.6 °F 17.6 °F 86% 29.99 in 10.0 mi SE 5.8 mph - N/A   Clear
5:15 AM 19.4 °F 14.3 °F 17.6 °F 93% 29.99 in 10.0 mi SSE 3.5 mph - N/A   Clear
5:35 AM 21.2 °F 14.9 °F 19.4 °F 93% 29.99 in 10.0 mi SE 4.6 mph - N/A   Clear
5:55 AM 19.4 °F 11.5 °F 17.6 °F 93% 29.98 in 10.0 mi SE 5.8 mph - N/A   Clear
6:15 AM 19.4 °F 12.8 °F 17.6 °F 93% 29.98 in 10.0 mi SSE 4.6 mph - N/A   Clear
6:35 AM 19.4 °F 9.5 °F 17.6 °F 93% 29.97 in 10.0 mi SE 8.1 mph - N/A   Clear
6:55 AM 19.4 °F 10.4 °F 17.6 °F 93% 29.97 in 10.0 mi SE 6.9 mph - N/A   Clear
7:15 AM 19.4 °F 8.6 °F 17.6 °F 93% 29.96 in 10.0 mi SE 9.2 mph - N/A   Clear
7:35 AM 19.4 °F 10.4 °F 17.6 °F 93% 29.96 in 10.0 mi SE 6.9 mph - N/A   Clear
7:55 AM 21.2 °F 11.7 °F 19.4 °F 93% 29.96 in 10.0 mi SE 8.1 mph - N/A   Clear
8:15 AM 23.0 °F 13.1 °F 19.4 °F 86% 29.96 in 10.0 mi SSE 9.2 mph - N/A   Clear
8:35 AM 24.8 °F 14.0 °F 21.2 °F 86% 29.95 in 10.0 mi SE 11.5 mph - N/A   Clear
8:55 AM 26.6 °F 15.7 °F 23.0 °F 86% 29.94 in 10.0 mi SSE 12.7 mph - N/A   Clear
9:15 AM 28.4 °F 17.0 °F 23.0 °F 80% 29.93 in 10.0 mi SE 15.0 mph - N/A   Clear
9:35 AM 30.2 °F 19.3 °F 23.0 °F 75% 29.93 in 10.0 mi SSE 15.0 mph - N/A   Clear
9:55 AM 32.0 °F 21.6 °F 23.0 °F 69% 29.92 in 10.0 mi SSE 15.0 mph - N/A   Clear
10:15 AM 33.8 °F 23.5 °F 24.8 °F 70% 29.92 in 10.0 mi SSE 16.1 mph - N/A   Clear
10:35 AM 35.6 °F 26.6 °F 24.8 °F 65% 29.91 in 10.0 mi South 13.8 mph 20.7 mph N/A   Clear
10:55 AM 37.4 °F 28.5 °F 24.8 °F 60% 29.89 in 10.0 mi SSE 15.0 mph - N/A   Clear
11:15 AM 39.2 °F 29.8 °F 24.8 °F 56% 29.88 in 10.0 mi SSE 18.4 mph - N/A   Clear
11:35 AM 39.2 °F 29.6 °F 24.8 °F 56% 29.87 in 10.0 mi SSE 19.6 mph - N/A   Clear
11:55 AM 42.8 °F 34.5 °F 24.8 °F 49% 29.86 in 10.0 mi SSE 18.4 mph - N/A   Clear
12:15 PM 42.8 °F 34.8 °F 24.8 °F 49% 29.84 in 9.0 mi SSE 17.3 mph 25.3 mph N/A   Clear
12:35 PM 44.6 °F 36.4 °F 24.8 °F 46% 29.82 in 10.0 mi SSE 20.7 mph 28.8 mph N/A   Clear
12:55 PM 44.6 °F 36.9 °F 24.8 °F 46% 29.81 in 10.0 mi SSE 18.4 mph 25.3 mph N/A   Clear
1:15 PM 46.4 °F 39.0 °F 26.6 °F 46% 29.79 in 10.0 mi SSE 19.6 mph 26.5 mph N/A   Clear
1:35 PM 46.4 °F 38.7 °F 26.6 °F 46% 29.78 in 10.0 mi SSE 20.7 mph - N/A   Clear
1:55 PM 48.2 °F - 26.6 °F 43% 29.76 in 10.0 mi SSE 23.0 mph - N/A   Clear
2:15 PM 50.0 °F - 26.6 °F 40% 29.75 in 10.0 mi SSE 20.7 mph 27.6 mph N/A   Clear
2:35 PM 48.2 °F - 26.6 °F 43% 29.74 in 10.0 mi SSE 23.0 mph - N/A   Clear
2:55 PM 50.0 °F - 28.4 °F 43% 29.73 in 10.0 mi SSE 21.9 mph 27.6 mph N/A   Clear
3:15 PM 50.0 °F - 28.4 °F 43% 29.72 in 10.0 mi SSE 20.7 mph 27.6 mph N/A   Clear
3:35 PM 48.2 °F - 28.4 °F 46% 29.72 in 10.0 mi SSE 23.0 mph - N/A   Clear
3:55 PM 48.2 °F - 28.4 °F 46% 29.71 in 10.0 mi SSE 18.4 mph 27.6 mph N/A   Clear
4:15 PM 48.2 °F - 28.4 °F 46% 29.70 in 10.0 mi SSE 18.4 mph 25.3 mph N/A   Clear
4:35 PM 48.2 °F - 28.4 °F 46% 29.69 in 10.0 mi SSE 19.6 mph 27.6 mph N/A   Clear
4:55 PM 46.4 °F 39.2 °F 28.4 °F 50% 29.69 in 10.0 mi SSE 18.4 mph - N/A   Clear
5:15 PM 46.4 °F 39.5 °F 28.4 °F 50% 29.68 in 10.0 mi SSE 17.3 mph - N/A   Clear
5:35 PM 44.6 °F 36.6 °F 28.4 °F 53% 29.67 in 10.0 mi SSE 19.6 mph - N/A   Clear
5:55 PM 42.8 °F 35.1 °F 28.4 °F 57% 29.66 in 10.0 mi SSE 16.1 mph - N/A   Clear
6:15 PM 41.0 °F 32.2 °F 28.4 °F 61% 29.65 in 10.0 mi SSE 18.4 mph - N/A   Clear
6:35 PM 41.0 °F 32.2 °F 28.4 °F 61% 29.65 in 10.0 mi SSE 18.4 mph - N/A   Clear
6:55 PM 41.0 °F 32.2 °F 28.4 °F 61% 29.65 in 10.0 mi SSE 18.4 mph - N/A   Clear
7:15 PM 39.2 °F 30.8 °F 28.4 °F 65% 29.65 in 10.0 mi SSE 15.0 mph - N/A   Clear
7:35 PM 41.0 °F 32.8 °F 28.4 °F 61% 29.65 in 10.0 mi SSE 16.1 mph - N/A   Clear
7:55 PM 39.2 °F 31.6 °F 28.4 °F 65% 29.66 in 10.0 mi SSE 12.7 mph - N/A   Clear
8:15 PM 39.2 °F 32.0 °F 28.4 °F 65% 29.65 in 10.0 mi SSE 11.5 mph - N/A   Clear
8:35 PM 39.2 °F 31.2 °F 28.4 °F 65% 29.65 in 10.0 mi SSE 13.8 mph - N/A   Clear
8:55 PM 39.2 °F 30.8 °F 30.2 °F 70% 29.64 in 10.0 mi South 15.0 mph - N/A   Clear
9:15 PM 39.2 °F 31.2 °F 30.2 °F 70% 29.64 in 10.0 mi SSE 13.8 mph - N/A   Clear
9:35 PM 39.2 °F 31.2 °F 30.2 °F 70% 29.63 in 10.0 mi SSE 13.8 mph 19.6 mph N/A   Clear
9:55 PM 39.2 °F 32.0 °F 30.2 °F 70% 29.63 in 10.0 mi SSE 11.5 mph - N/A   Clear
10:15 PM 39.2 °F 32.0 °F 30.2 °F 70% 29.62 in 10.0 mi SSE 11.5 mph - N/A   Clear
10:35 PM 39.2 °F 32.5 °F 30.2 °F 70% 29.62 in 10.0 mi South 10.4 mph - N/A   Clear
10:55 PM 39.2 °F 32.5 °F 30.2 °F 70% 29.61 in 10.0 mi SSE 10.4 mph - N/A   Clear
11:15 PM 39.2 °F 32.5 °F 30.2 °F 70% 29.60 in 10.0 mi SSE 10.4 mph - N/A   Clear
11:35 PM 39.2 °F 33.0 °F 30.2 °F 70% 29.59 in 10.0 mi South 9.2 mph - N/A   Clear
11:55 PM 37.4 °F 29.8 °F 30.2 °F 75% 29.58 in 10.0 mi South 11.5 mph - N/A   Clear